Location: Austin, TX
(30.3000°N, 97.7500°W)
Time: 21:20:17
(UTC-05:00)

Daily predictions for brighter satellites

Satellite Brightness Start Highest point End
(mag) Time Altitude Azimuth Time Altitude Azimuth Time Altitude Azimuth
FENGYUN 3A 4.0 20:44:45 10° S 20:50:04 70° WSW 20:55:26 10° NNW
Cosmos 1975 3.5 20:47:21 10° NNE 20:51:09 38° E 20:54:58 10° SSE
Cosmos 1743 4.5 20:49:18 10° NE 20:51:52 17° ENE 20:54:26 10° ESE
ISS -2.8 20:50:38 10° WSW 20:53:51 51° NW 20:57:05 10° NE
Cosmos 1346 4.4 20:52:41 10° SE 20:54:43 19° E 20:56:45 10° NE
Cosmos 2263 4.4 20:49:53 10° NNW 20:55:39 78° WSW 21:01:20 10° SSE
OAO 2 Rocket 4.1 20:53:12 10° W 20:57:59 51° N 21:02:49 10° ENE
CZ-2D R/B 3.3 20:55:18 10° SSE 20:59:03 58° ENE 21:02:48 10° N
Spot 2 Rocket 3.6 20:55:20 10° SSE 21:00:18 64° ENE 21:05:17 10° N
GPS 2-14 Rocket1 4.5 20:59:50 10° SSW 21:02:08 15° S 21:04:24 10° SE
Helios 1A 4.2 20:59:07 10° SE 21:02:34 25° ENE 21:06:00 10° NNE
SL-27 R/B 3.4 21:00:13 10° SSE 21:03:26 30° E 21:06:40 10° NE
H-2A R/B 3.3 21:02:51 10° S 21:06:30 57° W 21:10:09 10° NNW
Cosmos 1939 Rocket 4.3 21:04:17 11° ESE 21:07:03 21° ENE 21:09:59 10° NNE
Iridium 4 Rocket 3.7 21:03:40 10° N 21:08:57 90° SW 21:14:38 10° S
USA 81 4.1 21:03:50 10° SSE 21:08:59 59° E 21:14:11 10° NNE
Cosmos 1709 Rocket 4.0 21:04:42 10° N 21:10:58 89° W 21:17:06 10° S
Cosmos 1680 Rocket 3.4 21:07:45 10° S 21:12:56 69° ESE 21:18:07 10° NNE
Cosmos 1666 4.2 21:11:43 10° NNE 21:14:30 20° ENE 21:16:14 15° ESE
Cosmos 1437 3.1 21:14:20 10° SSW 21:17:31 65° W 21:20:43 10° N
CZ-3B Rocket 3.4 21:15:01 10° SW 21:18:04 21° SSE 21:21:33 14° ESE
Cosmos 1536 Rocket 3.7 21:17:04 10° S 21:21:22 76° W 21:25:42 10° N
Envisat 3.3 21:17:48 11° SSE 21:22:32 51° ENE 21:27:26 10° N
USA 186 1.8 21:22:42 10° S 21:25:55 76° W 21:29:04 10° NNW
Cosmos 1656 Rocket 3.8 21:20:41 10° N 21:26:04 57° ENE 21:30:21 16° SE
Meteor 2-4 Rocket 3.9 21:20:42 10° SSE 21:26:04 51° E 21:31:37 10° NNE
COSMOS 2455 3.1 21:24:11 10° NNW 21:30:08 68° WSW 21:36:04 10° SSE
Helios 1B rocket 2.4 21:26:44 10° NNE 21:30:53 85° ESE 21:35:00 10° SSW
Aurora 2 Rocket 4.2 21:24:41 10° W 21:31:31 58° S 21:38:56 17° ESE
Cosmos 192 4.2 21:27:43 10° S 21:32:36 75° ESE 21:37:30 10° NNE
Hubble Space Telescope 2.3 21:31:31 10° SSW 21:34:23 18° SSE 21:34:23 18° SSE
Cosmos 1025 Rocket 3.5 21:36:04 20° SSE 21:38:27 38° E 21:42:24 10° NNE
Cosmos 405 4.3 21:37:12 10° NNE 21:40:05 23° ENE 21:40:27 23° E
Spot 1 4.1 21:38:58 18° SSE 21:42:19 72° ENE 21:46:39 10° N
CZ-3A R/B 1.4 21:38:55 10° SW 21:46:45 84° NW 21:49:16 10° NE
Cosmos 405 Rocket 3.9 21:44:38 10° SSW 21:48:10 41° W 21:51:47 10° N
Cosmos 1943 Rocket 3.7 21:43:28 10° NW 21:48:22 32° WSW 21:53:13 10° SSW
Aureole 1 Rocket 3.6 21:46:12 10° SW 21:49:35 41° WNW 21:52:31 10° N
Cosmos 2074 Rocket 3.9 21:46:26 10° N 21:52:42 83° E 21:57:47 16° S
Okean 2 3.6 21:54:02 36° SE 21:55:07 45° E 21:59:01 10° NNE
Cosmos 2184 Rocket 4.0 21:49:43 10° N 21:56:05 85° E 22:00:55 18° S
Tiangong 2 4.2 21:55:02 10° NW 21:56:24 12° NNW 21:57:45 10° NNE
Cosmos 1441 Rocket 3.4 21:53:26 12° SSW 21:56:54 69° W 22:00:37 10° N
ARGOS 4.3 21:58:32 24° E 21:59:54 26° ENE 22:04:21 10° NNE
Resurs 01 Rocket 4.0 21:59:12 10° SW 22:02:24 20° W 22:05:37 10° NW
ERS-1 Rocket 3.2 22:01:27 34° SE 22:03:15 51° ENE 22:08:06 10° N
Meteor 1-23 Rocket 4.1 21:57:52 10° S 22:03:26 88° E 22:09:03 10° N
SPOT 5 3.8 22:09:29 25° ENE 22:09:30 25° ENE 22:13:03 10° NNE
MetOp-B 4.3 22:18:17 43° ESE 22:19:34 54° ENE 22:24:46 10° N
CENTAUR R/B 3.4 22:11:37 10° NW 22:19:40 63° WSW 22:24:51 25° S
CZ-4B DEB 4.3 22:20:52 25° WSW 22:21:21 27° W 22:23:57 10° NW
Cosmos 2082 Rocket 2.3 22:23:34 47° SE 22:24:19 50° ESE 22:29:47 10° NNE
ASTRO E2 3.2 22:21:27 10° W 22:24:51 46° SW 22:24:51 46° SW
MOS 1-B Rocket 3.9 22:26:27 46° SE 22:28:07 68° ENE 22:34:16 10° N
Meteor 1-15 Rocket 4.1 22:22:45 10° N 22:28:20 79° E 22:29:49 50° SSE
Meteor 2-19 Rocket 4.4 22:28:36 10° N 22:34:43 67° E 22:36:05 52° SE
SL-24 DEB 4.4 22:35:50 54° ENE 22:35:50 54° ENE 22:40:03 10° N
ASTEX 1 4.2 22:34:37 28° SSW 22:36:49 47° W 22:41:32 10° NNW
H-2A R/B 2.7 22:40:27 37° ENE 22:40:27 37° ENE 22:44:41 10° N
Cosmos 2154 Rocket 4.0 22:33:50 10° N 22:40:11 80° W 22:42:32 42° S
YAOGAN 6 4.2 22:41:01 27° WSW 22:41:14 27° W 22:44:17 10° NW
Mugunghwa Rocket 4.4 22:33:58 10° WSW 22:42:09 61° S 22:44:09 47° ESE
OAO 2 Rocket 3.7 22:38:17 10° WNW 22:43:10 57° N 22:44:05 48° NE
Cosmos 1624 Rocket 3.8 22:40:14 10° NNW 22:45:33 84° ENE 22:45:57 76° SE
Cosmos 2228 4.1 22:43:32 10° N 22:46:19 34° NE 22:46:19 34° NE
SL-08 RB Rocket 4.0 22:50:33 56° NNE 22:50:33 56° NNE 22:54:17 10° N
Cosmos 921 Rocket 3.7 22:45:55 10° N 22:49:22 47° NNE 22:49:22 47° NNE
Cosmos 2369 4.0 22:45:01 10° N 22:50:35 51° ENE 22:50:41 51° ENE
Cosmos 1697 Rocket 4.1 22:46:39 10° N 22:50:57 24° ENE 22:50:57 24° ENE
Cosmos 1892 Rocket 4.1 22:52:30 51° WSW 22:52:51 53° W 22:57:12 10° N
Cosmos 1656 4.4 22:53:23 10° N 22:58:04 39° NE 22:58:04 39° NE
Cosmos 1437 Rocket 4.1 22:57:49 10° NNW 23:00:45 36° WNW 23:00:45 36° WNW
Cosmos 1833 Rocket 2.7 23:00:37 63° SW 23:01:30 78° WNW 23:07:08 10° NNE
Cosmos 2056 Rocket 3.6 22:59:42 10° NNW 23:04:38 66° W 23:04:38 66° W
DMSP B5D2-2 4.3 23:02:13 10° NNE 23:06:34 59° NE 23:06:34 59° NE
Timation 2 Rocket 3.9 23:08:52 73° E 23:08:52 73° E 23:14:52 10° NNE
Cosmos 2341 Rocket 4.4 23:06:51 10° NNW 23:13:04 59° W 23:14:23 49° SW
Cosmos 1066 Rocket 4.3 23:16:09 68° W 23:16:10 68° W 23:21:43 10° N
Cosmos 2218 Rocket 3.9 23:18:19 10° N 23:24:05 78° NNE 23:24:05 78° NNE
Cosmos 1809 Rocket 4.5 23:23:00 10° N 23:28:27 72° NNE 23:28:27 72° NNE
SPOT 1/Viking Rocket 4.3 23:32:18 48° WNW 23:32:18 48° WNW 23:36:33 10° NNW
Cosmos 839 Rocket 4.5 23:28:44 10° NNW 23:35:43 72° WSW 23:36:25 68° SSW
Cosmos 1452 Rocket 4.3 23:31:33 10° NNW 23:35:24 50° NNW 23:35:24 50° NNW
Cosmos 1980 Rocket 3.5 23:34:20 10° N 23:38:09 32° NE 23:38:09 32° NE
Terra 3.3 23:46:50 35° NNW 23:46:50 35° NNW 23:49:34 10° NNW
Cosmos 2322 Rocket 4.4 23:46:37 10° NNE 23:48:59 15° NE 23:48:59 15° NE
H-2A R/B 4.0 23:52:19 28° NNW 23:52:19 28° NNW 23:54:32 10° NNW
